North Labrador Coast: Past 24 Hour Conditions

 

Rankin Inlet Airport

05:00 AM CDT 24 July 2014
This table is a summary of hourly weather conditions for the past 24 hours.
Date / Time
(CDT)
Wind(knots) Conditions Visibility(km) Pressure(kPa) Air tempC) Relative humidity(%) Dew pointC)
24 July 2014
5:00 N 7 Mainly Sunny 24 101.4 10 91 8
4:00 N 6 Mainly Clear 24 101.4 9 91 8
3:00 NNW 10 Mainly Clear 24 101.4 11 87 8
2:00 NNW 12 Mainly Clear 24 101.4 11 83 9
1:00 NNW 11 Mainly Clear 24 101.4 12 78 9
0:00 NNW 11 Mainly Clear 24 101.4 13 76 9
23 July 2014
23:00 NW 10 Mainly Clear 24 101.4 13 73 8
22:00 NW 10 Mainly Sunny 24 101.5 14 69 8
21:00 NNW 9 Sunny 24 101.5 16 60 9
20:00 N 14 Sunny 24 101.5 17 54 8
19:00 N 16 Sunny 24 101.5 18 51 8
18:00 N 16 gust 22 Sunny 24 101.5 18 50 8
17:00 N 15 Sunny 24 101.6 18 51 8
16:00 NNW 16 Mainly Sunny 24 101.6 18 52 8
15:00 NNW 12 gust 20 Partly Cloudy 24 101.6 17 51 7
14:00 NNW 12 Cloudy 24 101.6 16 57 8
13:00 N 11 gust 16 Cloudy 24 101.6 16 60 8
12:00 NNW 15 Cloudy 24 101.6 15 60 8
11:00 N 14 Cloudy 24 101.6 15 60 7
10:00 N 14 Cloudy 24 101.6 15 59 7
9:00 N 11 Mostly Cloudy 24 101.6 15 64 8
8:00 N 8 Mostly Cloudy 24 101.6 13 76 9
7:00 N 10 Partly Cloudy 24 101.6 12 79 9
6:00 N 10 Mainly Sunny 24 101.5 10 87 8
5:00 N 9 Sunny 24 101.5 9 91 8
 
Map of Arctic - Eastern Arctic marine weather areas Baker Lake Airport Chesterfield Inlet Airport Coral Harbour Airport Gjoa Haven Airport Kugaaruk Airport Rankin Inlet Airport Shepherd Bay Airport Whale Cove Airport Arctic Bay Brevoort Island Qikiqtarjuaq Airport Cape Dorset Airport Cape Dyer Cape Hooper Clyde Airport Grise Fiord Airport Hall Beach Airport Igloolik Airport Iqaluit Airport Longstaff Bluff Pangnirtung Airport Pond Inlet Airport Repulse Bay Airport Resolute Airport Resolution Island Rowley Island Airport Taloyoak Airport Wager Bay Akulivik Airport Ivujivik Airport Puvirnituq Airport Kangiqsujuaq Airport Kangirsuk Airport Quaqtaq Airport Tasiujaq Airport Cape Kakkiviak Cape Kiglapait Nain Airport Saglek Cape Mercy Kimmirut Airport Aupaluk Airport Salluit Airport Kangiqsualujjuaq Airport Fort Ross
Legend: buoyBuoy land stationLand Station